User: anonymous   Login
Location: Unspecified
(0.0000°N, 0.0000°E)
Time: 08:54:58
(UTC+00:00)
Language:

NNS O-32 - Orbit

View from above orbital plane
View from above orbital plane
View from above satellite
View from above satellite

Ground track
Ground track

The orbit data is extracted from the following two-line orbital elements,

1 19071U 88033B   19345.84823264  .00000008  00000-0 -24257-5 0  9993
2 19071  90.3627 305.7110 0189362 145.5249 244.3380 13.27636150532089
Epoch (UTC): 11 December 2019 20:21:27
Eccentricity: 0.0189362
inclination: 90.3627°
perigee height: 1013 km
apogee height: 1298 km
right ascension of ascending node: 305.7110°
argument of perigee: 145.5249°
revolutions per day: 13.27636150
mean anomaly at epoch: 244.3380°
orbit number at epoch: 53208

The dashed part of the orbit path shows where the satellite is in the earth's shadow,  

DLR